Wind_Speed
42 44 38 38 35 38 36 31 35 36 42 34 37 34 32 32 35 39 37 33 34 43 41 50 46 48 50 55 53 53 51 52 53 54 51 51 54 53 51 50 55 56 53
40 42 36 38 36 34 33 29 39 41 36 36 29 32 29 32 36 39 34 38 45 48 47 50 52 55 56 60 58 54 52 56 54 52 52 53 53 55 53 54 58 55 53
40 39 37 35 33 31 25 40 39 32 31 27 29 27 33 33 35 40 38 43 44 45 50 52 56 60 60 62 57 56 54 54 55 54 58 54 54 54 56 57 58 50 53
39 42 39 36 35 35 36 43 44 40 39 31 32 37 37 36 40 45 44 51 54 53 54 57 60 64 65 62 60 55 54 56 55 55 57 58 59 58 60 63 55 46 50
40 37 32 32 37 35 43 45 46 37 37 38 38 42 41 45 50 47 51 57 58 55 58 63 64 68 69 66 62 56 55 56 55 59 57 57 55 52 52 57 53 55 60
36 34 34 37 40 37 32 37 35 35 40 41 42 46 48 49 50 54 60 60 61 57 61 66 67 70 70 66 57 54 56 59 52 52 56 57 57 58 52 49 57 66 64
39 38 41 43 45 42 37 37 41 44 46 48 49 51 49 49 58 58 57 58 59 60 66 68 70 71 66 57 51 54 55 52 60 61 60 55 53 53 57 59 51 48 46
43 44 45 45 44 44 40 39 42 46 52 52 54 53 56 61 63 61 62 58 62 65 67 72 74 70 56 52 50 52 57 57 60 57 54 55 54 44 55 67 69 68 58
44 44 45 48 45 45 42 43 50 54 54 57 60 62 64 66 64 65 63 62 65 68 74 71 67 59 53 53 53 52 53 54 55 52 56 57 49 52 53 39 37 46 58
44 48 48 49 54 51 51 53 52 57 59 62 64 63 66 68 68 65 64 67 71 73 72 70 62 57 52 51 53 53 54 53 52 55 60 60 54 44 47 49 54 59 66
50 51 48 53 52 53 56 57 59 62 63 68 66 66 63 64 65 67 68 74 75 71 72 65 62 53 52 53 53 49 53 57 57 52 57 47 42 47 51 50 58 63 68
46 49 56 59 59 56 57 61 64 61 62 64 62 61 64 66 69 73 76 75 72 68 64 65 61 53 53 53 53 55 56 58 55 55 54 51 50 50 54 58 64 73 78
56 58 60 61 60 60 61 62 62 62 63 64 66 68 70 72 74 78 78 74 67 62 60 61 56 58 58 57 57 58 62 60 57 58 56 52 54 55 58 59 67 70 74
58 61 61 62 62 63 65 66 67 68 70 68 71 73 75 78 78 71 67 63 63 64 61 57 59 60 61 62 63 65 62 60 61 60 59 57 58 62 68 75 73 78 69
67 66 66 68 68 68 68 69 70 72 71 73 78 80 80 76 67 62 62 63 62 61 59 63 64 62 64 65 67 67 65 64 67 65 58 60 61 65 69 73 70 73 73
64 67 68 71 71 72 75 75 77 77 78 81 83 79 73 69 69 67 67 65 66 65 64 64 61 61 65 67 68 71 75 69 71 67 63 66 68 68 74 70 75 76 78
52 62 71 76 75 76 79 79 82 84 79 76 78 74 75 75 73 69 70 69 69 70 67 61 64 67 68 69 73 76 73 71 66 61 67 73 71 71 73 76 80 81 84
36 45 54 60 65 70 69 68 69 71 70 71 73 74 76 76 70 69 69 69 72 73 70 64 68 71 71 76 73 69 60 56 58 63 68 66 67 71 75 82 84 87 90
26 31 35 38 39 43 48 54 60 67 72 72 69 66 66 65 65 66 66 66 67 67 68 68 68 72 69 67 65 61 58 60 61 62 64 68 71 78 83 87 89 93 96
32 32 31 32 34 34 34 34 35 37 38 38 37 38 40 43 46 48 46 48 51 52 54 51 49 54 55 57 57 61 64 68 68 69 72 74 78 82 87 92 95 97 99
41 40 38 37 34 34 34 33 32 33 35 36 38 39 39 40 41 43 43 44 45 47 47 49 53 55 59 61 65 67 70 71 73 77 78 79 82 86 89 94 97 98 101
46 45 44 42 45 45 45 45 44 45 45 43 43 45 44 46 46 46 48 51 50 55 55 55 57 58 61 64 67 73 75 78 82 83 83 86 90 92 97 100 99 100 105
44 53 51 47 49 46 46 49 52 53 52 51 52 53 55 56 55 56 58 57 56 60 62 63 66 68 72 75 77 82 83 85 87 91 94 95 97 99 101 103 104 108 112
55 48 54 58 53 50 52 53 53 54 56 58 59 57 57 61 58 57 60 62 63 65 66 69 71 73 77 79 82 86 90 92 94 97 99 97 101 104 103 105 111 114 108
60 60 53 56 58 58 59 61 62 62 63 61 60 61 61 63 66 69 71 72 72 73 74 74 77 79 82 85 88 91 95 96 98 104 107 108 106 103 110 109 108 113 112
67 61 61 61 63 63 64 67 69 73 74 73 74 70 70 71 73 74 75 74 74 76 78 80 81 84 88 93 98 100 103 106 107 107 109 111 110 113 110 107 110 112 115
Wind_Direction
233 229 230 212 212 195 211 224 239 244 249 241 239 238 254 260 273 274 282 285 296 305 305 306 307 312 312 310 304 302 303 295 295 293 291 294 291 293 290 285 287 288 292
230 222 216 200 192 204 214 227 247 247 239 234 251 255 267 272 272 284 295 306 307 304 302 302 306 309 310 311 305 300 296 293 291 292 291 292 291 292 289 285 283 287 285
233 216 189 189 197 213 226 229 230 239 247 252 253 263 271 272 271 290 297 304 302 300 298 299 304 307 307 308 300 295 292 294 291 292 294 287 290 289 283 284 283 285 283
215 189 188 193 207 214 233 237 250 250 258 266 268 273 275 274 284 293 300 296 297 298 291 298 301 303 306 303 296 294 293 292 292 291 289 289 283 280 280 281 287 285 284
193 198 202 205 221 220 229 239 243 251 266 277 281 280 283 283 287 290 292 296 295 297 293 295 299 301 304 301 294 296 293 293 292 291 289 285 284 286 288 293 290 287 289
203 211 221 229 220 223 225 238 258 267 271 274 280 284 286 288 290 290 288 292 296 294 294 298 300 300 300 298 295 295 294 292 292 288 287 288 293 295 296 295 290 284 282
210 218 213 214 220 221 238 253 266 268 269 273 278 282 283 286 283 286 287 290 293 291 297 300 297 299 297 293 294 293 292 285 285 293 293 295 290 287 284 283 293 306 313
213 213 216 217 225 232 242 251 258 258 261 269 275 280 281 281 282 285 290 291 293 292 296 299 298 296 291 289 291 289 287 287 289 291 289 289 289 302 291 280 281 287 312
225 224 221 226 233 241 245 245 249 255 261 267 275 277 280 281 286 285 289 291 290 291 295 297 294 290 291 291 290 292 285 286 288 285 285 282 290 287 291 318 321 320 317
233 233 237 240 242 250 249 248 251 256 264 271 273 275 279 282 285 287 285 286 289 293 294 295 290 289 288 291 294 296 295 291 285 282 282 276 290 310 313 315 323 322 318
229 228 239 242 249 255 254 256 259 266 268 271 274 278 280 282 284 283 284 282 291 292 292 290 286 289 292 294 293 292 293 291 284 282 277 292 297 303 313 320 324 320 309
239 240 243 246 253 254 257 259 259 263 271 272 276 277 279 279 278 279 285 288 290 288 289 286 286 294 294 294 298 300 293 289 286 288 292 295 301 315 320 315 311 312 302
239 242 245 250 250 253 257 260 259 264 270 273 274 274 274 278 281 285 286 287 285 286 287 286 289 295 292 294 291 294 293 290 294 297 299 306 311 316 314 317 308 303 302
240 239 243 248 252 255 257 262 267 270 270 269 270 272 276 279 282 281 282 282 285 284 286 285 293 295 294 294 293 293 298 294 296 298 297 308 314 314 310 304 303 298 303
250 255 257 257 258 258 258 258 259 260 262 265 268 272 274 278 278 277 280 282 284 285 287 291 291 291 291 291 290 297 299 296 296 296 298 306 310 308 302 300 295 299 301
252 251 252 253 256 258 258 258 259 262 264 268 270 273 274 272 274 276 278 280 282 282 285 289 288 289 289 292 293 295 296 295 294 291 296 305 306 300 295 292 296 299 301
250 251 254 254 255 257 260 262 264 266 267 266 267 269 270 272 274 277 279 280 282 283 285 288 287 286 286 289 291 292 292 291 288 294 304 303 298 293 289 293 298 300 300
265 263 263 262 260 260 260 260 261 263 264 266 266 270 272 275 278 279 280 281 281 282 284 283 284 284 286 289 290 290 288 292 298 299 294 293 293 292 292 295 297 298 300
271 269 268 266 266 268 268 267 268 268 270 271 274 274 274 276 277 279 279 280 282 284 284 286 287 287 290 291 292 291 292 294 292 292 292 293 293 295 295 298 299 300 300
270 270 273 273 269 267 269 270 272 273 273 276 280 282 282 281 280 283 286 287 288 289 289 289 289 288 289 289 289 288 288 290 291 292 292 291 293 297 299 299 299 299 300
270 272 272 271 272 274 272 270 270 276 281 284 289 288 290 292 293 294 296 292 293 291 291 288 287 287 286 285 286 288 291 291 290 292 293 295 295 296 298 299 299 300 301
270 273 271 274 275 274 276 276 279 277 279 277 282 283 286 285 288 290 296 297 295 295 294 292 292 292 292 292 291 292 293 295 296 296 298 298 299 299 299 299 300 300 301
284 271 269 272 271 275 279 279 277 277 276 275 278 284 283 285 283 284 288 292 293 294 293 292 292 294 295 296 297 296 296 296 297 299 301 301 301 302 301 301 300 302 303
286 284 271 270 270 271 275 280 284 282 277 277 275 281 281 282 285 287 289 287 286 288 289 289 291 292 293 293 295 296 297 299 298 298 298 299 300 301 302 302 301 302 301
284 287 283 275 272 273 274 276 280 281 281 281 281 278 278 282 288 292 291 292 293 291 291 292 293 293 294 295 296 296 298 296 294 295 297 298 301 302 302 303 302 304 301
281 281 278 281 281 280 282 281 281 282 280 279 280 281 282 281 285 288 291 293 291 290 289 289 291 290 292 295 296 297 296 295 295 297 300 301 300 301 302 303 303 304 304
Height
10680 10684 10691 10696 10704 10710 10716 10724 10728 10732 10734 10736 10740 10741 10744 10745 10747 10748 10750 10748 10746 10743 10740 10738 10734 10730 10725 10721 10718 10713 10709 10705 10701 10698 10696 10692 10689 10686 10683 10680 10677 10674 10671
10678 10683 10689 10694 10699 10706 10714 10719 10723 10726 10728 10730 10732 10735 10738 10738 10741 10742 10740 10739 10737 10735 10732 10728 10723 10719 10714 10711 10706 10704 10700 10696 10691 10689 10686 10682 10679 10676 10673 10670 10667 10664 10660
10678 10682 10686 10689 10695 10702 10709 10715 10718 10719 10721 10724 10727 10729 10730 10732 10734 10733 10732 10731 10729 10727 10722 10717 10713 10709 10704 10700 10697 10693 10689 10686 10683 10679 10675 10671 10668 10665 10662 10659 10656 10653 10649
10675 10679 10682 10686 10691 10697 10705 10709 10712 10713 10715 10717 10719 10721 10723 10725 10726 10725 10723 10722 10720 10717 10710 10707 10703 10699 10695 10690 10686 10682 10679 10676 10674 10671 10666 10662 10658 10655 10651 10647 10644 10640 10635
10669 10673 10675 10680 10688 10693 10698 10703 10705 10706 10707 10708 10711 10713 10714 10715 10718 10716 10714 10713 10710 10705 10701 10697 10694 10690 10684 10678 10675 10672 10669 10665 10662 10659 10656 10651 10648 10643 10639 10635 10631 10627 10622
10665 10668 10672 10676 10682 10687 10692 10696 10695 10697 10698 10699 10701 10704 10705 10707 10707 10707 10706 10702 10698 10693 10691 10687 10683 10679 10674 10669 10666 10661 10658 10655 10651 10649 10646 10641 10635 10631 10627 10622 10619 10616 10610
10660 10663 10666 10670 10675 10679 10682 10685 10686 10688 10690 10691 10693 10695 10697 10698 10697 10697 10695 10693 10688 10684 10681 10675 10673 10667 10662 10659 10656 10652 10648 10645 10641 10637 10633 10630 10624 10620 10616 10612 10606 10600 10596
10652 10655 10660 10666 10671 10674 10677 10679 10679 10680 10681 10683 10686 10687 10688 10686 10685 10685 10682 10680 10677 10673 10673 10666 10659 10656 10651 10647 10646 10641 10637 10634 10629 10626 10622 10619 10616 10609 10603 10597 10593 10587 10582
10649 10654 10658 10661 10664 10667 10669 10670 10671 10672 10674 10676 10676 10676 10676 10673 10675 10673 10671 10668 10665 10662 10658 10656 10650 10642 10639 10635 10634 10631 10628 10624 10618 10614 10610 10605 10601 10597 10592 10585 10578 10573 10572
10644 10649 10653 10655 10658 10660 10662 10663 10664 10666 10667 10665 10666 10665 10665 10663 10661 10660 10659 10655 10652 10649 10646 10641 10637 10634 10628 10626 10619 10614 10611 10611 10611 10606 10602 10598 10587 10581 10575 10569 10563 10557 10555
10638 10642 10644 10648 10650 10652 10654 10654 10656 10658 10657 10653 10656 10655 10652 10651 10649 10647 10645 10642 10640 10637 10634 10628 10624 10618 10616 10613 10612 10611 10606 10597 10594 10593 10590 10582 10576 10571 10563 10556 10551 10546 10543
10631 10634 10635 10637 10640 10643 10644 10644 10646 10647 10646 10644 10641 10641 10639 10639 10637 10632 10629 10628 10626 10623 10621 10612 10610 10608 10603 10600 10597 10593 10591 10590 10586 10580 10573 10567 10560 10554 10548 10543 10540 10536 10531
10620 10623 10625 10628 10631 10633 10634 10634 10636 10635 10632 10631 10629 10628 10627 10626 10624 10620 10615 10612 10613 10611 10607 10600 10595 10594 10591 10588 10587 10584 10579 10573 10568 10562 10557 10550 10543 10536 10532 10529 10526 10525 10516
10612 10612 10613 10616 10619 10621 10622 10622 10621 10620 10619 10617 10615 10615 10613 10611 10610 10606 10603 10599 10598 10595 10595 10589 10583 10577 10575 10573 10571 10568 10564 10558 10552 10548 10542 10536 10529 10523 10518 10515 10512 10507 10502
10604 10606 10606 10607 10608 10608 10608 10609 10607 10606 10606 10605 10601 10599 10597 10594 10592 10591 10588 10584 10582 10580 10579 10574 10572 10566 10561 10558 10555 10552 10548 10543 10537 10533 10528 10521 10515 10511 10505 10503 10497 10491 10485
10591 10593 10595 10595 10595 10595 10596 10597 10593 10593 10593 10591 10588 10585 10583 10579 10577 10575 10572 10569 10565 10565 10567 10558 10557 10554 10546 10541 10537 10534 10532 10529 10523 10518 10513 10506 10501 10496 10494 10489 10481 10475 10468
10577 10579 10580 10580 10580 10581 10582 10582 10580 10579 10578 10576 10573 10571 10569 10565 10563 10560 10558 10555 10552 10548 10552 10547 10541 10539 10537 10532 10527 10522 10518 10514 10508 10503 10495 10491 10489 10483 10477 10472 10465 10458 10450
10566 10566 10565 10565 10565 10566 10566 10564 10562 10561 10561 10559 10557 10557 10553 10550 10547 10544 10542 10540 10537 10535 10534 10533 10528 10522 10521 10517 10514 10509 10504 10499 10493 10488 10484 10481 10474 10466 10459 10453 10448 10439 10431
10560 10559 10558 10556 10555 10554 10553 10551 10549 10547 10547 10547 10544 10542 10538 10535 10533 10530 10528 10527 10523 10520 10518 10516 10514 10509 10504 10498 10495 10491 10486 10482 10478 10474 10470 10465 10459 10450 10442 10433 10426 10417 10408
10552 10551 10551 10549 10547 10545 10543 10542 10540 10537 10535 10533 10531 10528 10524 10522 10519 10516 10514 10511 10507 10505 10502 10501 10499 10496 10491 10486 10482 10477 10473 10467 10463 10459 10454 10450 10443 10434 10425 10413 10405 10395 10385
10543 10542 10541 10539 10538 10536 10534 10533 10531 10529 10526 10524 10520 10518 10515 10511 10508 10505 10502 10498 10496 10492 10489 10487 10486 10482 10478 10475 10467 10463 10457 10451 10445 10438 10434 10430 10425 10418 10408 10394 10382 10373 10361
10532 10531 10529 10529 10529 10527 10523 10522 10520 10518 10516 10514 10510 10506 10503 10500 10496 10493 10489 10485 10482 10478 10476 10473 10468 10466 10459 10454 10449 10442 10437 10429 10424 10418 10412 10405 10397 10389 10380 10372 10360 10350 10339
10521 10519 10518 10516 10514 10513 10510 10508 10505 10504 10502 10499 10496 10494 10491 10487 10483 10478 10474 10470 10467 10462 10458 10453 10449 10445 10439 10432 10426 10420 10414 10407 10400 10389 10383 10379 10369 10364 10353 10342 10329 10321 10311
10506 10506 10503 10501 10500 10499 10497 10493 10490 10488 10485 10484 10484 10481 10477 10471 10467 10462 10457 10453 10450 10444 10440 10435 10430 10424 10418 10412 10406 10398 10389 10382 10375 10367 10359 10356 10345 10341 10330 10318 10303 10290 10281
10488 10488 10488 10485 10485 10484 10480 10477 10473 10471 10469 10467 10465 10464 10461 10456 10450 10443 10438 10436 10431 10425 10420 10415 10409 10404 10398 10391 10385 10377 10369 10362 10354 10345 10333 10332 10322 10315 10304 10291 10277 10265 10252
10472 10470 10468 10468 10467 10466 10463 10459 10455 10451 10449 10447 10445 10443 10439 10435 10431 10425 10418 10414 10409 10404 10400 10395 10389 10383 10377 10369 10362 10354 10344 10336 10328 10318 10305 10298 10292 10282 10283 10268 10253 10236 10224